Year,Month,Day,Hour,Minute,Value (Times are PST for temperature in C)
2014,08,09,10,06,22.00
2014,08,09,10,07,22.00
2014,08,09,10,08,22.00
2014,08,09,10,09,22.00
2014,08,09,10,10,22.00
2014,08,09,10,11,22.00
2014,08,09,10,12,21.90
2014,08,09,10,13,21.80
2014,08,09,10,14,21.80
2014,08,09,10,15,21.80
2014,08,09,10,16,21.80
2014,08,09,10,17,21.70
2014,08,09,10,18,21.70
2014,08,09,10,19,21.60
2014,08,09,10,20,21.60
2014,08,09,10,21,21.50
2014,08,09,10,22,21.50
2014,08,09,10,23,21.50
2014,08,09,10,24,21.60
2014,08,09,10,25,21.60
2014,08,09,10,26,21.80
2014,08,09,10,27,21.80
2014,08,09,10,28,21.90
2014,08,09,10,29,22.00
2014,08,09,10,30,22.10
2014,08,09,10,31,22.20
2014,08,09,10,32,22.10
2014,08,09,10,33,22.10
2014,08,09,10,34,22.10
2014,08,09,10,35,22.20
2014,08,09,10,36,22.20
2014,08,09,10,37,22.10
2014,08,09,10,38,22.20
2014,08,09,10,39,22.20
2014,08,09,10,40,22.20
2014,08,09,10,41,22.20
2014,08,09,10,42,22.20
2014,08,09,10,43,22.30
2014,08,09,10,44,22.30
2014,08,09,10,45,22.40
2014,08,09,10,46,22.40
2014,08,09,10,47,22.40
2014,08,09,10,48,22.50
2014,08,09,10,49,22.60
2014,08,09,10,50,22.60
2014,08,09,10,51,22.70
2014,08,09,10,52,22.70
2014,08,09,10,53,22.70
2014,08,09,10,54,22.70
2014,08,09,10,55,22.60
2014,08,09,10,56,22.60
2014,08,09,10,57,22.60
2014,08,09,10,58,22.60
2014,08,09,10,59,22.60
2014,08,09,11,00,22.60
2014,08,09,11,01,22.60
2014,08,09,11,02,22.60
2014,08,09,11,03,22.60
2014,08,09,11,04,22.60
2014,08,09,11,05,22.70
2014,08,09,11,06,22.80
2014,08,09,11,07,22.80
2014,08,09,11,08,22.80
2014,08,09,11,09,22.80
2014,08,09,11,10,22.80
2014,08,09,11,11,22.90
2014,08,09,11,12,22.90
2014,08,09,11,13,22.90
2014,08,09,11,14,23.00
2014,08,09,11,15,23.10
2014,08,09,11,16,23.20
2014,08,09,11,17,23.20
2014,08,09,11,18,23.30
2014,08,09,11,19,23.40
2014,08,09,11,20,23.50
2014,08,09,11,21,23.60
2014,08,09,11,22,23.70
2014,08,09,11,23,23.80
2014,08,09,11,24,23.80
2014,08,09,11,25,23.80
2014,08,09,11,26,23.70
2014,08,09,11,27,23.60
2014,08,09,11,28,23.50
2014,08,09,11,29,23.40
2014,08,09,11,30,23.40
2014,08,09,11,31,23.40
2014,08,09,11,32,23.30
2014,08,09,11,33,23.30
2014,08,09,11,34,23.30
2014,08,09,11,35,23.30
2014,08,09,11,36,23.30
2014,08,09,11,37,23.40
2014,08,09,11,38,23.40
2014,08,09,11,39,23.40
2014,08,09,11,40,23.40
2014,08,09,11,41,23.40
2014,08,09,11,42,23.40
2014,08,09,11,43,23.40
2014,08,09,11,44,23.40
2014,08,09,11,45,23.40
2014,08,09,11,46,23.40
2014,08,09,11,47,23.50
2014,08,09,11,48,23.50
2014,08,09,11,49,23.60
2014,08,09,11,50,23.60
2014,08,09,11,51,23.60
2014,08,09,11,52,23.70
2014,08,09,11,53,23.70
2014,08,09,11,54,23.80
2014,08,09,11,55,23.80
2014,08,09,11,56,23.80
2014,08,09,11,57,23.80
2014,08,09,11,58,23.80
2014,08,09,11,59,23.80
2014,08,09,12,00,24.00
2014,08,09,12,01,24.10
2014,08,09,12,02,24.10
2014,08,09,12,03,24.20
2014,08,09,12,04,24.20
2014,08,09,12,05,24.20
2014,08,09,12,06,24.20
2014,08,09,12,07,24.30
2014,08,09,12,08,24.30
2014,08,09,12,09,24.30
2014,08,09,12,10,24.30
2014,08,09,12,11,24.30
2014,08,09,12,12,24.30
2014,08,09,12,13,24.30
2014,08,09,12,14,24.30
2014,08,09,12,15,24.30
2014,08,09,12,16,24.30
2014,08,09,12,17,24.20
2014,08,09,12,18,24.10
2014,08,09,12,19,24.00
2014,08,09,12,20,23.90
2014,08,09,12,21,23.80
2014,08,09,12,22,23.70
2014,08,09,12,23,23.70
2014,08,09,12,24,23.70
2014,08,09,12,25,23.70
2014,08,09,12,26,23.70
2014,08,09,12,27,23.60
2014,08,09,12,28,23.60
2014,08,09,12,29,23.60
2014,08,09,12,30,23.70
2014,08,09,12,31,23.70
2014,08,09,12,32,23.70
2014,08,09,12,33,23.80
2014,08,09,12,34,23.90
2014,08,09,12,35,24.00
2014,08,09,12,36,24.10
2014,08,09,12,37,24.20
2014,08,09,12,38,24.30
2014,08,09,12,39,24.30
2014,08,09,12,40,24.20
2014,08,09,12,41,24.10
2014,08,09,12,42,23.90
2014,08,09,12,43,23.90
2014,08,09,12,44,23.80
2014,08,09,12,45,23.90
2014,08,09,12,46,24.00
2014,08,09,12,47,24.10
2014,08,09,12,48,24.20
2014,08,09,12,49,24.30
2014,08,09,12,50,24.30
2014,08,09,12,51,24.40
2014,08,09,12,52,24.50
2014,08,09,12,53,24.60
2014,08,09,12,54,24.60
2014,08,09,12,55,24.70
2014,08,09,12,56,24.80
2014,08,09,12,57,24.80
2014,08,09,12,58,24.80
2014,08,09,12,59,24.80
2014,08,09,13,00,24.80
2014,08,09,13,01,24.90
2014,08,09,13,02,25.00
2014,08,09,13,03,25.10
2014,08,09,13,04,25.20
2014,08,09,13,05,25.30
2014,08,09,13,06,25.30
2014,08,09,13,07,25.40
2014,08,09,13,08,25.40
2014,08,09,13,09,25.40
2014,08,09,13,10,25.30
2014,08,09,13,11,25.30
2014,08,09,13,12,25.30
2014,08,09,13,13,25.30
2014,08,09,13,14,25.30
2014,08,09,13,15,25.20
2014,08,09,13,16,25.20
2014,08,09,13,17,25.30
2014,08,09,13,18,25.40
2014,08,09,13,19,25.40
2014,08,09,13,20,25.40
2014,08,09,13,21,25.50
2014,08,09,13,22,25.50
2014,08,09,13,23,25.60
2014,08,09,13,24,25.70
2014,08,09,13,25,25.90
2014,08,09,13,26,25.90
2014,08,09,13,27,25.90
2014,08,09,13,28,25.90
2014,08,09,13,29,25.90
2014,08,09,13,30,25.90
2014,08,09,13,31,25.90
2014,08,09,13,32,25.80
2014,08,09,13,33,25.80
2014,08,09,13,34,25.70
2014,08,09,13,35,25.60
2014,08,09,13,36,25.50
2014,08,09,13,37,25.40
2014,08,09,13,38,25.40
2014,08,09,13,39,25.40
2014,08,09,13,40,25.40
2014,08,09,13,41,25.40
2014,08,09,13,42,25.50
2014,08,09,13,43,25.60
2014,08,09,13,44,25.70
2014,08,09,13,45,25.80
2014,08,09,13,46,25.80
2014,08,09,13,47,25.90
2014,08,09,13,48,25.90
2014,08,09,13,49,25.80
2014,08,09,13,50,25.80
2014,08,09,13,51,25.80
2014,08,09,13,52,25.80
2014,08,09,13,53,25.90
2014,08,09,13,54,25.90
2014,08,09,13,55,25.90
2014,08,09,13,56,25.90
2014,08,09,13,57,25.90
2014,08,09,13,58,25.90
2014,08,09,13,59,26.00
2014,08,09,14,00,26.10
2014,08,09,14,01,26.10
2014,08,09,14,02,26.20
2014,08,09,14,03,26.20
2014,08,09,14,04,26.10
2014,08,09,14,05,26.10
2014,08,09,14,06,26.00
2014,08,09,14,07,26.00
2014,08,09,14,08,25.90
2014,08,09,14,09,25.90
2014,08,09,14,10,25.90
2014,08,09,14,11,25.90
2014,08,09,14,12,25.90
2014,08,09,14,13,25.90
2014,08,09,14,14,26.00
2014,08,09,14,15,26.00
2014,08,09,14,16,26.10
2014,08,09,14,17,26.10
2014,08,09,14,18,26.10
2014,08,09,14,19,26.10
2014,08,09,14,20,26.00
2014,08,09,14,21,25.90
2014,08,09,14,22,25.90
2014,08,09,14,23,26.00
2014,08,09,14,24,26.10
2014,08,09,14,25,26.20
2014,08,09,14,26,26.20
2014,08,09,14,27,26.20
2014,08,09,14,28,26.30
2014,08,09,14,29,26.30
2014,08,09,14,30,26.10
2014,08,09,14,31,26.10
2014,08,09,14,32,26.10
2014,08,09,14,33,26.10
2014,08,09,14,34,26.20
2014,08,09,14,35,26.30
2014,08,09,14,36,26.30
2014,08,09,14,37,26.30
2014,08,09,14,38,26.30
2014,08,09,14,39,26.30
2014,08,09,14,40,26.20
2014,08,09,14,41,26.10
2014,08,09,14,42,26.10
2014,08,09,14,43,26.10
2014,08,09,14,44,26.20
2014,08,09,14,45,26.20
2014,08,09,14,46,26.30
2014,08,09,14,47,26.40
2014,08,09,14,48,26.40
2014,08,09,14,49,26.40
2014,08,09,14,50,26.40
2014,08,09,14,51,26.50
2014,08,09,14,52,26.60
2014,08,09,14,53,26.70
2014,08,09,14,54,26.70
2014,08,09,14,55,26.70
2014,08,09,14,56,26.70
2014,08,09,14,57,26.70
2014,08,09,14,58,26.80
2014,08,09,14,59,26.80
2014,08,09,15,00,26.70
2014,08,09,15,01,26.70
2014,08,09,15,02,26.80
2014,08,09,15,03,26.80
2014,08,09,15,04,26.90
2014,08,09,15,05,26.90
2014,08,09,15,06,26.90
2014,08,09,15,07,26.80
2014,08,09,15,08,26.70
2014,08,09,15,09,26.60
2014,08,09,15,10,26.60
2014,08,09,15,11,26.60
2014,08,09,15,12,26.60
2014,08,09,15,13,26.60
2014,08,09,15,14,26.50
2014,08,09,15,15,26.60
2014,08,09,15,16,26.60
2014,08,09,15,17,26.60
2014,08,09,15,18,26.70
2014,08,09,15,19,26.70
2014,08,09,15,20,26.80
2014,08,09,15,21,26.80
2014,08,09,15,22,26.80
2014,08,09,15,23,26.90
2014,08,09,15,24,26.90
2014,08,09,15,25,26.90
2014,08,09,15,26,27.00
2014,08,09,15,27,27.10
2014,08,09,15,28,27.10
2014,08,09,15,29,27.10
2014,08,09,15,30,27.10
2014,08,09,15,31,27.20
2014,08,09,15,32,27.20
2014,08,09,15,33,27.30
2014,08,09,15,34,27.40
2014,08,09,15,35,27.40
2014,08,09,15,36,27.50
2014,08,09,15,37,27.60
2014,08,09,15,38,27.60
2014,08,09,15,39,27.70
2014,08,09,15,40,27.60
2014,08,09,15,41,27.60
2014,08,09,15,42,27.50
2014,08,09,15,43,27.50
2014,08,09,15,44,27.50
2014,08,09,15,45,27.60
2014,08,09,15,46,27.70
2014,08,09,15,47,27.80
2014,08,09,15,48,27.80
2014,08,09,15,49,27.80
2014,08,09,15,50,27.80
2014,08,09,15,51,27.80
2014,08,09,15,52,27.90
2014,08,09,15,53,27.90
2014,08,09,15,54,28.00
2014,08,09,15,55,28.00
2014,08,09,15,56,28.00
2014,08,09,15,57,28.00
2014,08,09,15,58,28.00
2014,08,09,15,59,28.00
2014,08,09,16,00,28.10
2014,08,09,16,01,28.00
2014,08,09,16,02,27.90
2014,08,09,16,03,27.90
2014,08,09,16,04,27.90
2014,08,09,16,05,27.80
2014,08,09,16,06,27.80
2014,08,09,16,07,27.80
2014,08,09,16,08,27.80
2014,08,09,16,09,27.80
2014,08,09,16,10,27.80
2014,08,09,16,11,27.80
2014,08,09,16,12,27.80
2014,08,09,16,13,27.80
2014,08,09,16,14,27.80
2014,08,09,16,15,27.90
2014,08,09,16,16,27.90
2014,08,09,16,17,28.00
2014,08,09,16,18,28.00
2014,08,09,16,19,28.10
2014,08,09,16,20,28.20
2014,08,09,16,21,28.20
2014,08,09,16,22,28.10
2014,08,09,16,23,28.10
2014,08,09,16,24,28.10
2014,08,09,16,25,28.10
2014,08,09,16,26,28.10
2014,08,09,16,27,28.10
2014,08,09,16,28,28.10
2014,08,09,16,29,28.10
2014,08,09,16,30,28.00
2014,08,09,16,31,27.90
2014,08,09,16,32,27.70
2014,08,09,16,33,27.60
2014,08,09,16,34,27.50
2014,08,09,16,35,27.50
2014,08,09,16,36,27.40
2014,08,09,16,37,27.40
2014,08,09,16,38,27.40
2014,08,09,16,39,27.40
2014,08,09,16,40,27.40
2014,08,09,16,41,27.50
2014,08,09,16,42,27.60
2014,08,09,16,43,27.70
2014,08,09,16,44,27.80
2014,08,09,16,45,27.80
2014,08,09,16,46,27.80
2014,08,09,16,47,27.90
2014,08,09,16,48,27.90
2014,08,09,16,49,28.00
2014,08,09,16,50,28.00
2014,08,09,16,51,28.00
2014,08,09,16,52,28.00
2014,08,09,16,53,28.10
2014,08,09,16,54,28.10
2014,08,09,16,55,28.10
2014,08,09,16,56,28.10
2014,08,09,16,57,28.10
2014,08,09,16,58,28.10
2014,08,09,16,59,28.10
2014,08,09,17,00,28.10
2014,08,09,17,01,28.10
2014,08,09,17,02,28.10
2014,08,09,17,03,28.00
2014,08,09,17,04,28.00
2014,08,09,17,05,28.00
2014,08,09,17,06,28.00
2014,08,09,17,07,28.00
2014,08,09,17,08,28.00
2014,08,09,17,09,28.10
2014,08,09,17,10,28.10
2014,08,09,17,11,28.10
2014,08,09,17,12,28.10
2014,08,09,17,13,28.10
2014,08,09,17,14,28.00
2014,08,09,17,15,28.00
2014,08,09,17,16,27.90
2014,08,09,17,17,27.90
2014,08,09,17,18,27.90
2014,08,09,17,19,27.90
2014,08,09,17,20,27.90
2014,08,09,17,21,27.90
2014,08,09,17,22,27.90
2014,08,09,17,23,28.00
2014,08,09,17,24,28.00
2014,08,09,17,25,28.10
2014,08,09,17,26,28.10
2014,08,09,17,27,28.00
2014,08,09,17,28,27.90
2014,08,09,17,29,27.90
2014,08,09,17,30,27.90
2014,08,09,17,31,27.90
2014,08,09,17,32,27.90
2014,08,09,17,33,27.80
2014,08,09,17,34,27.90
2014,08,09,17,35,27.90
2014,08,09,17,36,27.90
2014,08,09,17,37,27.90
2014,08,09,17,38,27.90
2014,08,09,17,39,28.00
2014,08,09,17,40,28.00
2014,08,09,17,41,28.10
2014,08,09,17,42,28.10
2014,08,09,17,43,28.20
2014,08,09,17,44,28.20
2014,08,09,17,45,28.30
2014,08,09,17,46,28.40
2014,08,09,17,47,28.40
2014,08,09,17,48,28.40
2014,08,09,17,49,28.30
2014,08,09,17,50,28.30
2014,08,09,17,51,28.20
2014,08,09,17,52,28.20
2014,08,09,17,53,28.10
2014,08,09,17,54,28.10
2014,08,09,17,55,28.10
2014,08,09,17,56,28.10
2014,08,09,17,57,28.10
2014,08,09,17,58,28.10
2014,08,09,17,59,28.20
2014,08,09,18,00,28.10
2014,08,09,18,01,28.10
2014,08,09,18,02,28.10
2014,08,09,18,03,28.10
2014,08,09,18,04,28.20
2014,08,09,18,05,28.10
2014,08,09,18,06,28.10
2014,08,09,18,07,28.10
2014,08,09,18,08,28.00
2014,08,09,18,09,28.00
2014,08,09,18,10,27.90
2014,08,09,18,11,27.80
2014,08,09,18,12,27.80
2014,08,09,18,13,27.80
2014,08,09,18,14,27.80
2014,08,09,18,15,27.80
2014,08,09,18,16,27.80
2014,08,09,18,17,27.70
2014,08,09,18,18,27.70
2014,08,09,18,19,27.70
2014,08,09,18,20,27.70
2014,08,09,18,21,27.70
2014,08,09,18,22,27.70
2014,08,09,18,23,27.70
2014,08,09,18,24,27.60
2014,08,09,18,25,27.70
2014,08,09,18,26,27.70
2014,08,09,18,27,27.70
2014,08,09,18,28,27.70
2014,08,09,18,29,27.60
2014,08,09,18,30,27.60
2014,08,09,18,31,27.60
2014,08,09,18,32,27.60
2014,08,09,18,33,27.50
2014,08,09,18,34,27.50
2014,08,09,18,35,27.50
2014,08,09,18,36,27.40
2014,08,09,18,37,27.40
2014,08,09,18,38,27.40
2014,08,09,18,39,27.40
2014,08,09,18,40,27.40
2014,08,09,18,41,27.40
2014,08,09,18,42,27.50
2014,08,09,18,43,27.60
2014,08,09,18,44,27.60
2014,08,09,18,45,27.70
2014,08,09,18,46,27.70
2014,08,09,18,47,27.70
2014,08,09,18,48,27.70
2014,08,09,18,49,27.70
2014,08,09,18,50,27.80
2014,08,09,18,51,27.80
2014,08,09,18,52,27.70
2014,08,09,18,53,27.70
2014,08,09,18,54,27.70
2014,08,09,18,55,27.70
2014,08,09,18,56,27.60
2014,08,09,18,57,27.50
2014,08,09,18,58,27.40
2014,08,09,18,59,27.30
2014,08,09,19,00,27.20
2014,08,09,19,01,27.00
2014,08,09,19,02,26.90
2014,08,09,19,03,26.80
2014,08,09,19,04,26.70
2014,08,09,19,05,26.60
2014,08,09,19,06,26.40
2014,08,09,19,07,26.30
2014,08,09,19,08,26.30
2014,08,09,19,09,26.20
2014,08,09,19,10,26.10
2014,08,09,19,11,26.00
2014,08,09,19,12,25.90
2014,08,09,19,13,25.80
2014,08,09,19,14,25.70
2014,08,09,19,15,25.50
2014,08,09,19,16,25.50
2014,08,09,19,17,25.40
2014,08,09,19,18,25.30
2014,08,09,19,19,25.20
2014,08,09,19,20,25.10
2014,08,09,19,21,25.10
2014,08,09,19,22,25.00
2014,08,09,19,23,24.90
2014,08,09,19,24,24.90
2014,08,09,19,25,24.90
2014,08,09,19,26,24.90
2014,08,09,19,27,24.90
2014,08,09,19,28,24.90
2014,08,09,19,29,24.90
2014,08,09,19,30,24.90
2014,08,09,19,31,24.90
2014,08,09,19,32,24.90
2014,08,09,19,33,24.90
2014,08,09,19,34,24.90
